Погода в Каргалах

Россия / Тюменская область     57°04′23″N   70°41′14″E
темп.,
°C
ветер,
м/с
пор.,
м/с
влажн.,
%
обл.,
%
осадки,
мм/ч
давл.,
гПа
погр.,
м
17 апреля, сб
сб1723:00−1всв47745 0.0 1028464
02:00−2св24735 0.0 1028322
05:00−2всв007234 0.0 102832
08:000юз23515 0.0 1028549
11:00+4зюз45395 0.0 10261149
14:00+7зюз583369 0.0 10231772
17:00+7зюз51039100 0.0 10201866
20:00+5юз51152100 0.0 1017390
18 апреля, вс
вс1823:00+4зюз41264100 0.0 1015335
02:00+3зюз3872100 0.0 1013227
05:00+3зюз41272100 0.0 1010462
08:00+5з61168100 0.0 10081132
11:000с101267100 0.8 1012943
14:00−1с91355100 0.0 10171650
17:00−2с812398 0.1 10221830
20:00−5с611485 0.0 10261575
19 апреля, пн
пн1923:00−7с611515 0.0 10291356
02:00−8с584954 0.0 10301275
05:00−8с585197 0.0 10321325
08:00−7с5740100 0.0 10341564
11:00−4с5733100 0.0 10342006
14:00−2с5728100 0.0 10332252
17:00−1с4628100 0.0 10332203
20:00−4с224176 0.0 103418
20 апреля, вт
вт2023:00−4зсз11455 0.0 103412
02:00−5з234729 0.0 103365
05:00−5зюз374893 0.0 1033217
08:00−1зюз5935100 0.0 1031591
11:00+4з7123297 0.0 10271518
14:00+7з8123584 0.0 10241690
17:00+7зсз61345100 0.0 10231558
20:00+4зсз51359100 0.0 1022451
21 апреля, ср
ср2123:00+3зсз6156985 0.0 1021473
02:00+2сз5137893 0.0 1021500
05:00+3ссз61076100 0.0 1023942
08:00+3с7106984 0.0 10251067
11:00+4с79505 0.1 10271341
14:00+6ссв79395 0.0 10291697
17:00+5ссв683929 0.0 10321816
20:00+2св38550 0.0 1036257